Date String (YYYY-MM-DD hh:mm:ss) UTC,Instrument flags,Ambient pressure (hPa),Sample flow (lpm),Bypass flow (lpm),Sample temperature (°C),Ambient temperature (°C),ASC tube jacket temperature (°C),LED temperature (°C),Box temperature (°C),Sample RH (%),Span deviation,Mass concentration (μg/m³),Mass concentration (μg/m³),Mass concentration (μg/m³)
DateTimeUTC,F1_M11,P_M11,Q1_M11,Q2_M11,T1_M11,T2_M11,T3_M11,T4_M11,T5_M11,U1_M11,ZSPAN_M11,X0_M11,X2_M11,X1_M11
2021-10-19 00:00:00,,0818.3,5.00,0.00,30.0,29.2,00.0,39.0,31.9,11.0,0000.0,0016.56,0003.47,0002.10
2021-10-19 00:01:00,,0818.3,4.99,0.00,30.1,29.3,00.0,39.0,32.0,11.0,0000.0,0018.09,0003.46,0002.10
2021-10-19 00:02:00,,0818.4,5.01,0.00,30.1,29.4,00.0,39.0,32.0,11.0,0000.0,0018.04,0003.45,0002.13
2021-10-19 00:03:00,,0818.4,4.99,0.00,30.2,29.5,00.0,39.1,32.0,11.0,0000.0,0018.29,0003.50,0002.15
2021-10-19 00:04:00,,0818.4,4.99,0.00,30.2,29.5,00.0,39.1,32.0,11.0,0000.0,0018.77,0003.51,0002.16
2021-10-19 00:05:00,,0818.4,5.02,0.00,30.2,28.8,00.0,39.1,31.9,11.0,0000.0,0018.11,0003.53,0002.16
2021-10-19 00:06:00,,0818.4,4.98,0.00,30.0,26.5,00.0,39.1,31.2,11.1,0000.0,0017.37,0003.60,0002.17
2021-10-19 00:07:00,,0818.4,5.01,0.00,29.8,25.6,00.0,39.0,31.0,11.1,0000.0,0017.60,0003.61,0002.16
2021-10-19 00:08:00,,0818.3,4.99,0.00,29.8,25.9,00.0,39.0,31.0,11.2,0000.0,0016.28,0003.60,0002.16
2021-10-19 00:09:00,,0818.4,5.01,0.00,29.7,26.4,00.0,38.9,31.1,11.3,0000.0,0016.10,0003.63,0002.16
2021-10-19 00:10:00,,0818.4,5.00,0.00,29.7,26.9,00.0,38.9,31.2,11.3,0000.0,0015.63,0003.67,0002.17
2021-10-19 00:11:00,,0818.4,4.99,0.00,29.7,27.4,00.0,38.9,31.3,11.2,0000.0,0016.30,0003.65,0002.17
2021-10-19 00:12:00,,0818.4,5.01,0.00,29.7,27.7,00.0,38.8,31.4,11.3,0000.0,0014.69,0003.70,0002.17
2021-10-19 00:13:00,,0818.4,4.99,0.00,29.7,28.0,00.0,38.8,31.4,11.3,0000.0,0015.37,0003.74,0002.16
2021-10-19 00:14:00,,0818.4,5.01,0.00,29.7,28.3,00.0,38.8,31.5,11.3,0000.0,0014.68,0003.77,0002.15
2021-10-19 00:15:00,,0818.4,4.99,0.00,29.7,28.5,00.0,38.8,31.5,11.3,0000.0,0013.91,0003.83,0002.15
2021-10-19 00:16:00,,0818.4,5.01,0.00,29.8,28.6,00.0,38.8,31.5,11.3,0000.0,0014.31,0003.87,0002.16
2021-10-19 00:17:00,,0818.4,5.00,0.00,29.8,28.7,00.0,38.8,31.6,11.2,0000.0,0014.39,0003.84,0002.16
2021-10-19 00:18:00,,0818.4,5.01,0.00,29.8,28.9,00.0,38.9,31.7,11.2,0000.0,0014.51,0003.85,0002.17
2021-10-19 00:19:00,,0818.4,5.00,0.00,29.9,29.0,00.0,38.9,31.7,11.1,0000.0,0014.53,0003.87,0002.18
2021-10-19 00:20:00,,0818.4,5.00,0.00,29.9,29.0,00.0,38.9,31.7,11.1,0000.0,0013.97,0003.85,0002.19
2021-10-19 00:21:00,,0818.4,5.00,0.00,30.0,29.1,00.0,38.9,31.8,10.7,0000.0,0013.69,0003.80,0002.20
2021-10-19 00:22:00,,0818.4,5.00,0.00,30.0,29.2,00.0,38.9,31.9,10.9,0000.0,0012.04,0003.78,0002.19
2021-10-19 00:23:00,,0818.4,5.02,0.00,30.0,29.3,00.0,39.0,31.9,11.0,0000.0,0011.92,0003.76,0002.18
2021-10-19 00:24:00,,0818.4,5.00,0.00,30.1,29.3,00.0,39.0,31.9,10.9,0000.0,0012.51,0003.73,0002.20
2021-10-19 00:25:00,,0818.4,5.00,0.00,30.1,28.0,00.0,39.0,31.6,10.9,0000.0,0012.84,0003.71,0002.21
2021-10-19 00:26:00,,0818.4,5.01,0.00,29.9,26.5,00.0,39.0,31.2,10.9,0000.0,0012.40,0003.69,0002.23
2021-10-19 00:27:00,,0818.4,4.99,0.00,29.8,26.5,00.0,39.0,31.2,10.8,0000.0,0012.76,0003.64,0002.23
2021-10-19 00:28:00,,0818.4,4.99,0.00,29.7,26.9,00.0,38.9,31.3,11.0,0000.0,0013.74,0003.60,0002.23
2021-10-19 00:29:00,,0818.4,5.00,0.00,29.7,27.3,00.0,38.9,31.3,11.1,0000.0,0013.24,0003.61,0002.23
2021-10-19 00:30:00,,0818.4,4.99,0.00,29.7,27.7,00.0,38.9,31.4,11.1,0000.0,0013.28,0003.61,0002.23
2021-10-19 00:31:00,,0818.4,5.01,0.00,29.7,28.0,00.0,38.8,31.4,11.0,0000.0,0013.68,0003.65,0002.22
2021-10-19 00:32:00,,0818.4,5.00,0.00,29.8,28.2,00.0,38.8,31.5,10.9,0000.0,0013.54,0003.71,0002.22
2021-10-19 00:33:00,,0818.4,4.99,0.00,29.8,28.4,00.0,38.8,31.5,11.0,0000.0,0013.72,0003.75,0002.24
2021-10-19 00:34:00,,0818.4,5.01,0.00,29.8,28.6,00.0,38.9,31.6,11.0,0000.0,0014.19,0003.81,0002.24
2021-10-19 00:35:00,,0818.4,4.99,0.00,29.8,28.8,00.0,38.9,31.7,11.0,0000.0,0013.34,0003.84,0002.22
2021-10-19 00:36:00,,0818.4,4.99,0.00,29.9,28.9,00.0,38.9,31.7,11.0,0000.0,0013.47,0003.79,0002.21
2021-10-19 00:37:00,,0818.4,5.00,0.00,29.9,29.0,00.0,38.9,31.7,11.0,0000.0,0014.14,0003.77,0002.18
2021-10-19 00:38:00,,0818.2,5.00,0.00,30.0,29.1,00.0,38.9,31.8,10.9,0000.0,0014.40,0003.86,0002.18
2021-10-19 00:39:00,,0818.2,5.01,0.00,30.0,29.1,00.0,38.9,31.8,10.8,0000.0,0013.36,0003.92,0002.18
2021-10-19 00:40:00,,0818.4,4.99,0.00,30.0,29.2,00.0,39.0,31.9,10.7,0000.0,0013.34,0003.88,0002.18
2021-10-19 00:41:00,,0818.4,5.01,0.00,30.1,29.2,00.0,39.0,31.9,10.7,0000.0,0013.22,0003.87,0002.17
2021-10-19 00:42:00,,0818.4,5.00,0.00,30.1,28.1,00.0,39.0,31.6,10.7,0000.0,0012.40,0003.82,0002.16
2021-10-19 00:43:00,,0818.4,4.99,0.00,29.9,26.5,00.0,39.0,31.2,10.8,0000.0,0012.45,0003.78,0002.14
2021-10-19 00:44:00,,0818.3,5.00,0.00,29.8,26.5,00.0,39.0,31.2,10.7,0000.0,0013.58,0003.83,0002.15
2021-10-19 00:45:00,,0818.4,5.01,0.00,29.7,26.8,00.0,38.9,31.2,10.7,0000.0,0013.42,0003.79,0002.15
2021-10-19 00:46:00,,0818.4,5.00,0.00,29.7,27.2,00.0,38.9,31.3,10.7,0000.0,0013.75,0003.78,0002.16
2021-10-19 00:47:00,,0818.4,5.00,0.00,29.7,27.6,00.0,38.8,31.3,10.7,0000.0,0013.53,0003.83,0002.15
2021-10-19 00:48:00,,0818.4,4.99,0.00,29.7,27.9,00.0,38.8,31.4,10.7,0000.0,0012.94,0003.84,0002.15
2021-10-19 00:49:00,,0818.4,5.02,0.00,29.7,28.2,00.0,38.8,31.4,10.8,0000.0,0012.08,0003.79,0002.16
2021-10-19 00:50:00,,0818.3,4.99,0.00,29.7,28.4,00.0,38.8,31.5,10.8,0000.0,0011.96,0003.79,0002.17
2021-10-19 00:51:00,,0818.3,5.01,0.00,29.8,28.5,00.0,38.8,31.6,10.7,0000.0,0013.47,0003.83,0002.17
2021-10-19 00:52:00,,0818.4,4.99,0.00,29.8,28.7,00.0,38.8,31.6,10.7,0000.0,0013.87,0003.83,0002.18
2021-10-19 00:53:00,,0818.4,5.01,0.00,29.8,28.8,00.0,38.8,31.6,10.5,0000.0,0014.35,0003.85,0002.17
2021-10-19 00:54:00,,0818.4,4.99,0.00,29.9,28.9,00.0,38.9,31.7,10.5,0000.0,0014.11,0003.85,0002.16
2021-10-19 00:55:00,,0818.4,5.00,0.00,29.9,29.0,00.0,38.9,31.7,10.6,0000.0,0013.67,0003.79,0002.15
2021-10-19 00:56:00,,0818.4,5.00,0.00,29.9,29.1,00.0,38.9,31.8,10.6,0000.0,0013.24,0003.76,0002.13
2021-10-19 00:57:00,,0818.5,4.99,0.00,30.0,29.2,00.0,38.9,31.8,10.6,0000.0,0012.54,0003.73,0002.12
2021-10-19 00:58:00,,0818.4,5.00,0.00,30.0,29.2,00.0,39.0,31.9,10.6,0000.0,0012.36,0003.66,0002.12
2021-10-19 00:59:00,,0818.4,4.99,0.00,30.0,29.3,00.0,39.0,31.9,10.5,0000.0,0012.49,0003.66,0002.12
